Total_Precipitation_Accumulation
0.00 0.00 0.00 0.00 0.00 0.00 0.01 0.04 0.08 0.10 0.14 0.14 0.16 0.22 0.23 0.28 0.48 0.83 0.37 0.20 0.16 0.08 0.02 0.02 0.03 0.04 0.05 0.07 0.09 0.12 0.12 0.12 0.11 0.12 0.12 0.12 0.11 0.11 0.13 0.13 0.15 0.21 0.24 0.22 0.23 0.25 0.25 0.22 0.16
0.00 0.00 0.00 0.00 0.00 0.00 0.01 0.04 0.07 0.08 0.11 0.15 0.18 0.21 0.18 0.20 0.23 0.17 0.15 0.13 0.09 0.05 0.03 0.02 0.03 0.04 0.03 0.05 0.06 0.10 0.13 0.16 0.16 0.18 0.14 0.12 0.12 0.13 0.13 0.13 0.15 0.19 0.20 0.19 0.18 0.17 0.16 0.13 0.11
0.00 0.00 0.00 0.00 0.00 0.00 0.04 0.06 0.08 0.09 0.12 0.17 0.25 0.30 0.28 0.25 0.24 0.18 0.14 0.12 0.09 0.05 0.05 0.04 0.04 0.04 0.04 0.04 0.06 0.11 0.15 0.16 0.18 0.19 0.17 0.13 0.11 0.11 0.14 0.18 0.21 0.23 0.23 0.24 0.24 0.20 0.13 0.10 0.10
0.00 0.00 0.00 0.00 0.00 0.01 0.04 0.05 0.07 0.10 0.16 0.17 0.21 0.30 0.32 0.27 0.22 0.19 0.18 0.15 0.09 0.05 0.04 0.05 0.07 0.06 0.06 0.06 0.06 0.11 0.17 0.18 0.18 0.19 0.19 0.18 0.14 0.13 0.18 0.25 0.28 0.28 0.27 0.32 0.37 0.30 0.21 0.13 0.11
0.00 0.00 0.00 0.00 0.00 0.01 0.02 0.04 0.05 0.08 0.13 0.15 0.19 0.34 0.47 0.39 0.31 0.27 0.22 0.20 0.14 0.09 0.06 0.08 0.10 0.08 0.08 0.08 0.11 0.15 0.19 0.22 0.24 0.23 0.23 0.23 0.17 0.15 0.20 0.28 0.32 0.32 0.31 0.31 0.28 0.22 0.17 0.14 0.12
0.00 0.00 0.00 0.00 0.00 0.01 0.02 0.03 0.04 0.06 0.12 0.14 0.19 0.37 0.71 0.67 0.59 0.48 0.34 0.37 0.33 0.20 0.10 0.11 0.12 0.12 0.13 0.15 0.18 0.20 0.20 0.23 0.24 0.25 0.26 0.24 0.18 0.16 0.20 0.27 0.34 0.40 0.35 0.27 0.21 0.16 0.12 0.12 0.12
0.00 0.00 0.00 0.00 0.00 0.01 0.02 0.03 0.04 0.07 0.14 0.21 0.26 0.46 0.77 0.79 0.72 0.60 0.56 0.56 0.50 0.35 0.23 0.20 0.18 0.17 0.18 0.19 0.20 0.22 0.23 0.24 0.25 0.23 0.23 0.23 0.20 0.17 0.20 0.27 0.32 0.30 0.23 0.19 0.16 0.14 0.11 0.09 0.07
0.00 0.00 0.00 0.00 0.00 0.01 0.03 0.04 0.05 0.08 0.15 0.21 0.25 0.51 0.97 0.98 0.82 0.75 0.80 0.73 0.74 0.79 0.84 0.58 0.29 0.21 0.18 0.18 0.25 0.31 0.32 0.31 0.28 0.25 0.22 0.20 0.18 0.20 0.23 0.25 0.24 0.20 0.14 0.10 0.10 0.09 0.08 0.06 0.06
0.00 0.00 0.00 0.00 0.01 0.02 0.03 0.05 0.07 0.10 0.17 0.20 0.20 0.43 0.90 0.94 0.81 0.83 0.99 1.08 1.00 1.14 1.29 0.73 0.43 0.35 0.32 0.30 0.28 0.33 0.36 0.38 0.32 0.28 0.29 0.27 0.29 0.37 0.38 0.29 0.28 0.21 0.16 0.14 0.13 0.11 0.10 0.08 0.08
0.00 0.00 0.00 0.00 0.01 0.02 0.04 0.06 0.11 0.14 0.23 0.31 0.31 0.38 0.63 0.90 0.97 0.96 1.09 1.47 1.44 1.21 1.05 0.95 0.73 0.51 0.47 0.44 0.46 0.46 0.43 0.45 0.38 0.47 0.41 0.47 0.76 0.85 0.69 0.64 0.53 0.39 0.29 0.24 0.23 0.22 0.18 0.13 0.11
0.00 0.00 0.00 0.00 0.01 0.01 0.03 0.06 0.11 0.23 0.29 0.35 0.44 0.56 0.81 1.01 1.10 1.19 1.30 1.55 1.79 1.79 1.28 1.11 1.00 0.81 0.73 0.79 0.82 0.77 0.75 0.77 0.72 0.85 0.74 0.82 0.94 0.88 0.86 0.87 0.75 0.66 0.55 0.50 0.49 0.37 0.29 0.24 0.25
0.00 0.00 0.00 0.00 0.00 0.01 0.02 0.05 0.09 0.18 0.38 0.47 0.58 0.72 0.90 1.00 1.19 1.49 1.53 1.67 1.85 2.02 1.74 1.29 1.24 1.19 1.29 1.35 1.24 1.12 1.17 1.17 1.10 1.17 1.01 1.09 1.23 1.23 1.12 1.16 1.09 1.06 0.95 0.92 0.79 0.65 0.53 0.47 0.42
0.00 0.00 0.00 0.00 0.01 0.03 0.05 0.10 0.15 0.15 0.17 0.31 0.44 0.67 0.90 0.86 1.18 1.56 1.65 1.89 2.05 1.99 1.78 1.60 1.68 1.64 1.63 1.63 1.73 1.61 1.50 1.63 1.63 1.63 1.43 1.45 1.42 1.36 1.35 1.30 1.30 1.27 1.33 1.31 1.22 1.03 0.85 0.70 0.60
0.00 0.00 0.00 0.00 0.01 0.05 0.06 0.12 0.15 0.13 0.11 0.19 0.27 0.42 0.66 0.85 1.10 1.43 1.64 2.02 2.05 1.86 1.83 1.76 1.96 1.85 1.78 1.84 1.98 1.93 1.78 1.94 2.13 2.25 2.15 1.92 1.77 1.66 1.58 1.63 1.66 1.50 1.51 1.59 1.59 1.42 1.21 0.97 0.83
0.00 0.00 0.00 0.00 0.01 0.01 0.03 0.09 0.14 0.10 0.14 0.16 0.18 0.32 0.53 0.80 0.98 1.43 1.69 1.95 1.96 1.85 1.77 1.81 1.76 1.90 2.00 2.11 2.12 2.06 2.07 2.20 2.35 2.43 2.47 2.21 1.94 1.92 1.84 1.87 1.89 1.67 1.63 1.78 1.88 1.75 1.57 1.26 1.06
0.00 0.00 0.00 0.01 0.01 0.02 0.03 0.13 0.23 0.21 0.19 0.19 0.24 0.29 0.49 0.81 0.98 1.35 1.64 1.77 1.76 1.87 2.09 2.09 1.81 2.01 2.14 2.17 2.19 2.07 2.16 2.37 2.49 2.46 2.55 2.43 2.13 2.03 2.07 2.01 1.92 1.86 1.91 2.09 2.23 2.10 1.96 1.74 1.53
0.00 0.00 0.01 0.01 0.02 0.02 0.04 0.11 0.21 0.27 0.23 0.20 0.22 0.34 0.53 0.77 0.97 1.24 1.56 1.85 1.91 2.13 2.51 2.27 1.95 2.04 2.11 2.24 2.36 2.26 2.31 2.59 2.81 2.88 2.74 2.46 2.25 2.24 2.33 2.32 2.30 2.27 2.28 2.32 2.26 2.31 2.17 2.18 2.01
0.00 0.00 0.01 0.03 0.02 0.03 0.05 0.10 0.18 0.29 0.29 0.33 0.33 0.50 0.67 0.76 0.84 1.04 1.41 1.80 2.04 2.45 2.93 2.53 2.06 2.09 2.29 2.28 2.26 2.43 2.63 2.90 3.14 3.08 2.87 2.72 2.70 2.68 2.71 2.66 2.69 2.73 2.76 2.59 2.50 2.45 2.26 2.15 2.08
0.00 0.00 0.01 0.03 0.03 0.05 0.11 0.17 0.25 0.32 0.36 0.37 0.44 0.62 0.65 0.68 0.80 0.93 1.32 1.74 2.11 2.52 2.77 2.72 2.49 2.50 2.65 2.73 2.54 2.71 3.01 3.32 3.57 3.50 3.41 3.37 3.32 3.25 3.23 3.21 3.13 3.00 2.91 2.77 2.58 2.41 2.29 2.14 1.96
0.00 0.00 0.02 0.04 0.04 0.04 0.12 0.26 0.41 0.46 0.55 0.53 0.53 0.65 0.67 0.71 0.83 0.99 1.35 1.68 2.09 2.42 2.48 2.66 2.77 2.80 2.68 2.96 3.19 3.46 3.79 3.94 4.21 4.46 4.52 4.39 4.16 3.92 3.75 3.62 3.37 3.04 2.85 2.75 2.57 2.36 2.20 2.03 1.86
0.00 0.00 0.02 0.04 0.05 0.08 0.17 0.45 0.60 0.70 0.65 0.66 0.66 0.82 0.88 0.91 0.99 1.14 1.41 1.63 1.92 2.29 2.50 2.65 2.91 3.01 2.96 3.37 3.91 4.39 4.67 4.69 4.75 4.78 4.85 4.80 4.39 4.03 3.75 3.44 3.21 2.96 2.77 2.63 2.54 2.38 2.23 2.04 1.86
0.00 0.00 0.01 0.04 0.05 0.12 0.16 0.42 0.69 0.78 0.78 0.71 0.75 0.77 0.90 0.84 0.85 1.00 1.24 1.60 1.74 2.06 2.29 2.45 2.79 3.16 3.47 3.88 4.42 4.98 5.27 5.43 5.34 5.01 4.77 4.48 4.08 3.70 3.27 3.02 2.98 2.79 2.58 2.41 2.22 2.06 1.97 1.90 1.79
0.00 0.00 0.01 0.04 0.06 0.11 0.13 0.30 0.64 0.76 0.75 0.78 0.82 0.79 0.79 0.72 0.68 0.78 0.92 1.20 1.47 1.73 2.00 2.28 2.58 2.99 3.59 4.31 4.93 5.38 5.70 5.66 5.25 4.77 4.21 3.79 3.46 3.16 2.89 2.66 2.66 2.55 2.31 2.07 1.81 1.62 1.54 1.53 1.55
0.00 0.01 0.03 0.06 0.08 0.18 0.15 0.26 0.63 0.85 0.91 0.96 0.89 0.82 0.76 0.72 0.68 0.69 0.75 0.96 1.17 1.39 1.67 2.03 2.45 2.77 3.32 3.98 4.59 4.98 5.25 5.18 4.78 4.17 3.63 3.24 2.90 2.60 2.36 2.11 1.95 1.82 1.64 1.50 1.39 1.27 1.24 1.23 1.28
0.00 0.01 0.07 0.16 0.19 0.20 0.19 0.32 0.70 0.91 0.98 0.99 0.92 0.90 0.83 0.74 0.72 0.70 0.70 0.79 0.94 1.13 1.35 1.63 2.02 2.50 2.88 3.26 3.81 3.99 4.02 3.84 3.47 3.19 2.95 2.58 2.24 1.96 1.74 1.54 1.40 1.33 1.23 1.16 1.11 1.09 1.06 1.01 0.99
0.01 0.01 0.07 0.15 0.21 0.27 0.36 0.59 0.98 1.01 1.06 1.04 0.97 0.89 0.84 0.80 0.70 0.72 0.70 0.77 0.94 1.09 1.28 1.45 1.70 2.07 2.38 2.52 2.70 2.72 2.63 2.56 2.42 2.24 2.01 1.77 1.55 1.42 1.30 1.14 1.03 1.00 1.00 0.97 0.94 0.91 0.86 0.79 0.74
0.01 0.02 0.04 0.07 0.11 0.23 0.49 0.85 1.24 1.39 1.28 1.15 1.01 0.88 0.83 0.82 0.77 0.76 0.72 0.77 0.90 0.99 1.16 1.25 1.29 1.44 1.54 1.62 1.69 1.77 1.78 1.68 1.66 1.57 1.39 1.25 1.08 0.96 0.88 0.80 0.77 0.75 0.71 0.66 0.61 0.61 0.64 0.66 0.65
0.01 0.02 0.03 0.08 0.17 0.30 0.51 0.89 1.20 1.48 1.37 1.14 1.00 0.88 0.80 0.80 0.78 0.75 0.70 0.71 0.72 0.77 0.87 0.99 1.04 1.06 1.05 1.09 1.09 1.16 1.17 1.09 1.02 0.94 0.89 0.78 0.68 0.59 0.56 0.52 0.51 0.53 0.56 0.53 0.50 0.51 0.54 0.56 0.56
0.03 0.04 0.05 0.08 0.12 0.26 0.56 0.99 1.19 1.58 1.58 1.35 1.13 0.93 0.89 0.93 0.86 0.77 0.72 0.64 0.60 0.62 0.64 0.70 0.78 0.86 0.91 0.92 0.89 0.86 0.85 0.78 0.71 0.67 0.63 0.55 0.48 0.44 0.43 0.43 0.42 0.43 0.47 0.50 0.53 0.55 0.55 0.61 0.58
0.06 0.07 0.09 0.19 0.19 0.22 0.52 1.21 1.36 1.49 1.59 1.57 1.41 1.17 1.01 0.92 0.84 0.73 0.66 0.61 0.53 0.51 0.49 0.52 0.58 0.59 0.67 0.72 0.75 0.73 0.67 0.62 0.57 0.52 0.51 0.50 0.44 0.42 0.42 0.44 0.41 0.39 0.38 0.41 0.46 0.49 0.51 0.56 0.57